Temp
74 74 78 79 78 78 78 78 78 78 77 77 77 77 76 76 76 76 76 76 76 76 76 77 77 77 78 78 78 78 78 78 78 78 79 79 79 78 79 80 79 79 79
79 74 78 78 78 78 78 78 78 77 77 77 77 77 77 76 76 76 76 76 76 76 76 77 77 77 78 78 78 78 78 78 78 78 79 79 79 79 79 80 80 78 79
77 74 77 78 78 78 78 78 77 77 77 77 77 77 77 77 77 77 76 76 76 76 76 77 77 77 78 78 78 78 78 78 77 77 78 75 73 79 79 79 79 78 78
74 74 75 78 78 78 78 77 77 77 77 77 77 77 77 77 77 77 77 76 77 77 77 77 77 77 77 78 78 78 78 78 77 78 73 73 74 78 79 78 79 78 78
74 75 75 78 78 78 78 77 77 77 77 77 77 77 77 76 76 76 77 77 77 77 78 78 78 77 77 77 77 78 77 77 77 77 71 71 71 76 78 78 78 79 78
75 75 75 77 77 77 78 77 77 77 77 77 77 77 76 77 77 76 76 76 77 77 78 78 78 77 77 77 77 77 77 76 77 71 70 71 71 74 78 78 78 78 78
71 71 73 77 77 78 78 77 77 77 76 76 77 77 77 76 76 76 76 76 76 77 77 77 77 77 76 77 77 76 75 75 72 68 69 69 70 74 78 77 78 78 78
71 69 71 77 77 77 77 77 77 76 76 76 76 76 75 75 75 75 75 75 76 76 76 77 77 76 76 75 76 75 74 75 74 68 69 69 71 74 78 77 77 77 78
71 71 71 73 75 77 77 76 76 76 75 75 75 74 74 74 74 74 74 74 75 75 75 75 75 75 75 75 75 74 74 75 69 67 69 68 73 75 78 78 77 77 77
68 71 69 68 70 70 71 76 76 75 75 74 74 74 73 73 73 73 72 72 73 73 73 74 75 75 75 74 74 74 74 75 68 67 67 67 74 76 78 78 77 77 77
68 64 64 64 66 66 67 70 75 76 75 75 73 74 71 64 62 65 68 71 71 72 73 73 74 74 74 74 73 74 75 66 66 65 66 71 75 77 78 78 77 77 77
64 64 63 63 63 64 69 65 65 66 64 64 65 63 62 60 59 64 66 70 71 72 73 73 73 74 74 65 68 72 66 65 64 65 66 73 75 77 78 78 77 75 75
68 64 63 62 62 63 64 61 60 60 60 60 62 61 60 60 59 59 58 59 59 64 62 65 65 66 65 63 63 64 64 64 63 64 68 73 74 76 78 77 77 76 76
64 64 63 62 62 61 61 59 59 59 59 59 60 60 58 58 58 58 57 58 59 59 60 60 61 62 63 63 63 63 62 63 63 63 65 73 74 75 78 77 76 76 75
63 64 63 61 61 61 60 59 59 59 60 60 60 60 59 58 57 58 59 60 60 59 58 59 60 60 61 62 62 63 62 63 64 63 63 72 74 75 76 76 75 74 73
65 64 62 62 61 61 60 60 60 59 60 60 59 60 61 59 58 58 61 60 58 57 58 59 59 59 60 60 61 61 62 63 63 64 64 66 73 73 75 75 75 74 75
65 64 62 61 61 61 60 60 59 59 60 60 60 61 61 60 59 59 60 59 57 58 58 58 58 59 59 59 60 60 61 62 63 64 65 66 68 73 74 75 74 75 75
62 62 62 67 61 60 59 59 60 60 60 60 60 60 61 61 60 59 58 57 58 58 57 57 57 57 57 58 58 58 60 61 63 64 65 65 66 68 72 74 74 74 74
63 62 62 62 61 60 60 59 59 60 60 60 60 60 61 62 62 58 57 57 59 57 56 57 56 57 57 57 58 59 59 60 62 65 66 64 65 66 67 72 71 72 72
62 62 61 61 60 60 59 59 59 59 60 61 60 61 62 62 61 58 57 58 58 57 56 56 56 57 57 57 59 59 58 59 61 63 65 67 66 66 67 69 69 69 71
61 60 60 60 59 59 57 58 58 59 59 59 60 62 63 62 60 58 57 58 58 56 56 56 56 57 56 57 56 55 59 61 61 62 63 65 66 67 68 67 67 68 68
60 60 60 61 59 59 58 59 59 58 60 60 60 62 63 62 61 59 58 58 58 56 56 56 57 57 56 57 55 54 53 57 61 63 64 65 65 66 66 66 67 66 66
60 60 61 60 60 59 60 59 58 59 59 59 59 60 60 63 62 60 60 59 57 57 55 56 57 57 55 57 57 55 52 52 58 62 63 64 64 64 64 65 66 66 66
60 60 60 60 59 60 60 59 59 57 56 57 58 59 60 63 62 61 61 59 58 57 56 57 58 57 57 56 57 59 58 59 57 56 61 62 63 63 63 64 64 65 66
60 59 60 60 59 60 60 60 58 57 57 57 57 58 58 60 62 62 60 59 58 57 57 57 57 57 57 57 58 58 57 59 59 59 57 59 61 62 63 63 64 64 65
59 59 59 59 59 60 60 60 59 58 57 57 57 57 57 59 59 60 60 58 59 58 58 58 58 58 57 59 60 59 59 57 57 58 58 59 59 60 62 63 63 64 64
MSLP
1009.85 1009.84 1010.22 1010.66 1011.16 1011.46 1011.61 1011.94 1012.28 1012.54 1012.78 1013.05 1013.18 1013.43 1013.49 1013.79 1014.01 1014.14 1014.00 1014.03 1014.05 1014.05 1014.15 1014.09 1014.06 1014.08 1014.09 1014.16 1014.23 1014.19 1014.16 1013.99 1013.84 1013.87 1013.71 1013.83 1013.86 1014.08 1014.15 1014.21 1014.53 1014.74 1014.90
1008.35 1009.55 1010.14 1010.60 1010.98 1011.13 1011.33 1011.62 1011.91 1012.43 1012.72 1012.96 1013.14 1013.31 1013.27 1013.56 1013.81 1013.76 1013.93 1013.90 1013.96 1014.00 1014.01 1014.10 1013.99 1014.03 1014.01 1014.06 1014.12 1014.18 1014.14 1013.99 1013.88 1013.82 1013.65 1013.60 1013.88 1014.05 1014.20 1014.32 1014.49 1014.75 1014.82
1008.43 1009.24 1009.88 1010.37 1010.62 1010.84 1011.26 1011.58 1011.90 1012.01 1012.50 1012.72 1012.96 1013.04 1013.04 1013.17 1013.33 1013.44 1013.61 1013.67 1013.75 1013.78 1013.78 1013.86 1013.89 1013.90 1013.86 1013.94 1014.01 1014.01 1014.09 1013.96 1013.93 1013.80 1013.72 1013.68 1013.89 1014.04 1014.27 1014.38 1014.43 1014.80 1014.89
1008.28 1009.01 1009.49 1009.82 1010.20 1010.72 1011.05 1011.39 1011.73 1012.01 1012.25 1012.49 1012.70 1012.99 1012.93 1012.96 1013.06 1013.21 1013.36 1013.44 1013.39 1013.50 1013.50 1013.74 1013.72 1013.74 1013.74 1013.70 1013.82 1013.92 1013.95 1013.85 1013.88 1013.81 1013.77 1013.73 1013.81 1013.93 1014.22 1014.48 1014.54 1014.58 1014.86
1008.30 1008.53 1009.03 1009.53 1010.10 1010.51 1010.79 1011.13 1011.48 1011.86 1012.14 1012.33 1012.46 1012.82 1012.69 1012.70 1012.82 1012.89 1013.01 1013.13 1013.18 1013.26 1013.29 1013.19 1013.20 1013.37 1013.50 1013.59 1013.76 1013.83 1013.87 1013.79 1013.77 1013.77 1013.85 1013.82 1013.83 1013.88 1014.10 1014.37 1014.47 1014.40 1014.84
1008.19 1008.42 1008.93 1009.36 1009.83 1010.23 1010.51 1010.85 1011.08 1011.33 1011.72 1012.00 1012.21 1012.27 1012.45 1012.43 1012.45 1012.48 1012.71 1012.83 1012.93 1012.79 1012.81 1012.79 1012.95 1013.19 1013.35 1013.46 1013.53 1013.62 1013.70 1013.71 1013.69 1013.84 1013.84 1013.86 1013.78 1013.87 1014.08 1014.33 1014.48 1014.49 1014.80
1008.07 1008.35 1008.78 1009.14 1009.61 1009.99 1010.21 1010.48 1010.80 1011.13 1011.23 1011.60 1011.69 1011.80 1012.06 1012.17 1012.13 1012.15 1012.20 1012.32 1012.46 1012.56 1012.60 1012.62 1012.73 1012.79 1012.93 1013.09 1013.22 1013.36 1013.56 1013.56 1013.59 1013.77 1013.75 1013.83 1013.79 1013.74 1013.92 1014.18 1014.54 1014.51 1014.81
1007.72 1008.29 1008.65 1008.98 1009.37 1009.59 1009.79 1010.05 1010.38 1010.89 1011.09 1011.18 1011.30 1011.48 1011.76 1011.88 1011.91 1012.03 1012.04 1012.12 1012.22 1012.30 1012.40 1012.40 1012.34 1012.46 1012.62 1012.83 1012.99 1013.21 1013.41 1013.38 1013.41 1013.67 1013.68 1013.61 1013.65 1013.65 1013.67 1014.07 1014.48 1014.59 1014.83
1007.89 1008.29 1008.57 1008.80 1009.12 1009.39 1009.71 1009.78 1010.20 1010.50 1010.81 1011.04 1011.17 1011.36 1011.51 1011.73 1011.77 1011.82 1011.87 1011.87 1011.86 1011.99 1012.14 1012.20 1012.08 1012.09 1012.30 1012.54 1012.69 1012.92 1013.18 1013.29 1013.32 1013.56 1013.55 1013.46 1013.44 1013.34 1013.44 1013.84 1014.30 1014.54 1014.88
1007.92 1008.23 1008.48 1008.63 1008.98 1009.35 1009.67 1009.98 1010.10 1010.16 1010.47 1010.86 1011.03 1011.16 1011.26 1011.53 1011.62 1011.69 1011.78 1011.78 1011.62 1011.65 1011.82 1011.81 1011.68 1011.74 1011.94 1012.32 1012.56 1012.79 1013.04 1013.19 1013.21 1013.24 1013.35 1013.40 1013.17 1013.21 1013.14 1013.56 1014.09 1014.40 1014.88
1008.15 1008.28 1008.44 1008.64 1008.79 1009.05 1009.46 1010.15 1010.03 1010.00 1010.29 1010.58 1010.81 1010.96 1011.10 1011.38 1011.61 1011.64 1011.76 1011.66 1011.56 1011.44 1011.40 1011.35 1011.24 1011.29 1011.58 1011.91 1012.25 1012.53 1012.77 1013.12 1013.14 1013.21 1013.21 1013.09 1012.96 1012.98 1012.98 1013.30 1013.69 1014.26 1014.74
1007.97 1008.10 1008.26 1008.62 1008.86 1009.17 1009.32 1009.60 1010.06 1010.12 1010.24 1010.44 1010.70 1010.88 1011.06 1011.23 1011.40 1011.43 1011.39 1011.30 1011.23 1011.11 1011.03 1010.93 1010.86 1010.87 1011.11 1011.64 1012.00 1012.20 1012.58 1012.91 1013.02 1012.99 1012.94 1012.79 1012.72 1012.71 1012.75 1012.99 1013.40 1014.07 1014.41
1006.88 1007.41 1008.01 1008.50 1008.81 1008.95 1009.26 1009.55 1010.06 1010.13 1010.21 1010.40 1010.52 1010.59 1010.81 1011.07 1011.23 1011.21 1011.23 1011.25 1011.24 1011.24 1011.21 1010.94 1010.75 1010.69 1011.04 1011.48 1011.84 1012.11 1012.44 1012.66 1012.80 1012.72 1012.66 1012.49 1012.49 1012.48 1012.44 1012.66 1013.29 1013.97 1014.60
1006.54 1007.13 1007.51 1008.13 1008.71 1008.88 1009.18 1009.69 1009.90 1010.10 1009.97 1010.04 1010.07 1010.27 1010.73 1010.92 1011.07 1010.99 1011.00 1010.99 1011.05 1010.99 1010.93 1010.86 1010.79 1010.71 1010.99 1011.34 1011.63 1011.97 1012.22 1012.42 1012.54 1012.52 1012.47 1012.32 1012.24 1012.20 1012.22 1012.47 1013.35 1013.97 1014.59
1006.34 1006.94 1007.53 1007.83 1008.39 1008.90 1009.33 1009.74 1009.88 1009.73 1009.67 1009.66 1009.79 1009.93 1010.21 1010.49 1010.64 1010.67 1010.67 1010.53 1010.61 1010.68 1010.81 1010.88 1010.85 1010.93 1011.12 1011.32 1011.67 1011.81 1012.12 1012.21 1012.29 1012.27 1012.24 1012.12 1011.98 1012.08 1012.19 1012.56 1013.30 1013.90 1014.45
1005.80 1006.61 1007.39 1007.69 1008.23 1008.78 1009.20 1009.49 1009.27 1009.18 1009.11 1009.31 1009.40 1009.49 1009.64 1009.90 1010.19 1010.26 1010.32 1010.33 1010.54 1010.49 1010.57 1010.63 1010.76 1010.88 1011.13 1011.45 1011.68 1011.79 1011.94 1011.98 1012.01 1011.98 1012.00 1011.98 1011.82 1011.99 1012.29 1012.80 1013.07 1013.71 1014.81
1005.38 1006.41 1007.27 1007.51 1008.10 1008.46 1008.82 1008.99 1009.01 1008.84 1008.76 1008.94 1008.89 1008.97 1009.18 1009.38 1009.53 1009.75 1009.90 1010.00 1010.23 1010.35 1010.48 1010.50 1010.71 1010.93 1011.16 1011.43 1011.56 1011.74 1011.79 1011.67 1011.69 1011.60 1011.73 1011.78 1011.82 1011.92 1012.12 1012.52 1013.17 1013.66 1014.60
1005.84 1006.79 1007.21 1007.52 1007.98 1008.32 1008.54 1008.68 1008.71 1008.58 1008.52 1008.50 1008.48 1008.61 1008.76 1008.83 1008.99 1009.32 1009.59 1009.76 1009.91 1010.11 1010.28 1010.46 1010.70 1011.02 1011.18 1011.41 1011.54 1011.62 1011.55 1011.56 1011.43 1011.48 1011.50 1011.66 1011.80 1011.87 1012.14 1012.89 1013.57 1014.09 1014.65
1005.49 1006.47 1007.24 1007.47 1007.89 1008.09 1008.25 1008.45 1008.45 1008.39 1008.26 1008.10 1008.13 1008.22 1008.34 1008.41 1008.58 1009.04 1009.32 1009.57 1009.63 1009.87 1010.09 1010.31 1010.55 1010.74 1011.11 1011.31 1011.46 1011.39 1011.33 1011.29 1011.31 1011.41 1011.60 1011.73 1011.78 1011.89 1012.28 1013.09 1012.29 1013.83 1014.48
1005.67 1006.40 1006.82 1007.26 1007.72 1008.03 1008.11 1008.31 1008.32 1008.20 1007.93 1007.87 1007.91 1008.00 1007.99 1008.03 1008.30 1008.75 1009.01 1009.26 1009.46 1009.68 1009.93 1010.13 1010.38 1010.62 1010.85 1011.23 1011.34 1011.42 1011.34 1011.33 1011.42 1011.45 1011.70 1011.72 1011.93 1011.97 1012.20 1012.84 1013.54 1014.18 1014.31
1005.62 1006.32 1006.74 1007.25 1007.80 1007.94 1008.23 1008.35 1008.28 1008.15 1007.95 1007.77 1007.67 1007.71 1007.72 1007.86 1008.06 1008.44 1008.80 1008.99 1009.19 1009.48 1009.61 1009.89 1010.24 1010.59 1010.94 1011.08 1011.38 1011.60 1011.65 1011.57 1011.46 1011.54 1011.83 1012.08 1012.29 1012.22 1012.40 1012.81 1012.92 1014.10 1014.85
1005.78 1006.26 1006.65 1007.31 1007.66 1007.70 1007.93 1007.94 1008.01 1007.98 1007.74 1007.64 1007.54 1007.51 1007.52 1007.62 1007.78 1008.17 1008.55 1008.69 1008.93 1009.26 1009.46 1009.80 1009.93 1010.42 1010.75 1010.91 1011.17 1011.56 1012.03 1012.04 1011.88 1011.92 1012.14 1012.37 1012.41 1012.37 1012.70 1012.30 1013.48 1014.35 1015.32
1005.80 1006.18 1006.59 1007.24 1007.45 1007.53 1007.67 1007.77 1007.92 1007.79 1007.69 1007.70 1007.67 1007.58 1007.48 1007.45 1007.56 1007.87 1008.20 1008.38 1008.66 1008.95 1009.29 1009.53 1009.72 1009.99 1010.52 1010.91 1010.76 1011.15 1011.86 1012.12 1012.33 1012.57 1012.56 1012.56 1012.63 1012.83 1012.91 1012.94 1013.08 1014.80 1015.90
1005.61 1005.99 1006.66 1007.09 1007.25 1007.47 1007.54 1007.74 1007.89 1008.00 1008.07 1008.00 1007.84 1007.57 1007.53 1007.42 1007.51 1007.76 1007.96 1008.13 1008.39 1008.67 1009.04 1009.26 1009.50 1009.71 1009.97 1010.50 1010.89 1010.99 1011.10 1011.30 1011.96 1012.46 1012.83 1012.99 1013.05 1013.30 1013.41 1013.61 1014.04 1015.09 1016.01
1005.63 1006.24 1006.69 1007.00 1007.25 1007.46 1007.53 1007.66 1007.79 1007.87 1007.92 1007.97 1007.81 1007.64 1007.64 1007.54 1007.61 1007.78 1007.87 1008.05 1008.27 1008.46 1008.77 1009.13 1009.42 1009.62 1009.73 1010.21 1010.58 1011.03 1011.26 1011.52 1011.43 1012.04 1012.70 1013.19 1013.58 1013.96 1014.07 1014.52 1014.76 1015.09 1016.13
1005.90 1006.38 1006.77 1007.02 1007.28 1007.52 1007.56 1007.59 1007.70 1007.78 1007.90 1008.06 1007.89 1007.77 1007.77 1007.65 1007.71 1007.83 1007.88 1007.96 1008.16 1008.36 1008.64 1008.90 1009.14 1009.34 1009.66 1009.88 1010.24 1010.76 1011.16 1011.35 1011.80 1012.22 1012.88 1013.37 1013.72 1014.22 1014.68 1015.01 1015.06 1015.57 1016.38
Wind_Speed
14 10 21 20 19 18 18 17 16 16 14 13 12 11 10 9 8 7 6 5 4 4 5 5 4 5 4 4 5 6 6 6 8 10 9 12 10 12 10 14 15 13 17
16 12 21 20 20 19 18 18 16 14 13 13 13 12 11 11 10 8 7 6 6 6 7 7 6 6 6 5 5 6 7 7 8 10 9 11 11 12 14 15 16 15 18
14 13 18 21 21 19 18 17 15 14 14 13 12 11 11 10 10 9 9 8 8 8 8 8 8 8 7 7 7 6 7 8 9 9 9 4 4 12 13 15 18 19 18
13 14 16 23 21 18 17 16 15 14 14 14 13 13 13 13 11 11 11 11 11 10 9 10 9 9 9 8 9 9 8 7 9 10 5 3 5 9 15 16 19 19 18
13 15 16 22 19 18 18 16 16 15 15 15 14 15 15 13 13 14 14 14 14 13 13 13 12 10 10 10 10 8 9 8 9 8 5 5 4 6 14 18 19 20 19
12 13 14 19 19 19 18 17 16 17 16 15 16 16 14 14 14 13 15 16 16 15 15 14 15 13 12 12 11 9 10 9 9 4 5 5 6 9 13 17 19 20 18
8 8 11 19 20 19 19 18 17 16 15 16 15 13 14 15 14 14 15 16 15 16 17 17 16 16 13 13 10 9 11 8 5 4 5 5 5 9 13 17 19 19 17
12 8 8 18 19 19 18 17 16 15 15 16 14 14 12 11 11 13 14 15 16 16 17 18 17 15 12 13 10 10 8 8 6 4 5 4 7 10 14 16 18 19 19
7 9 8 11 15 18 16 14 15 14 13 12 11 11 10 10 11 13 15 16 17 17 18 19 18 16 13 15 14 12 10 9 6 4 4 3 9 11 14 17 19 20 19
7 9 9 7 7 6 5 13 13 14 13 12 12 11 10 10 11 12 12 12 16 17 18 18 20 19 15 15 14 13 12 12 6 4 4 4 11 12 15 18 20 20 20
4 5 6 7 7 7 7 7 11 12 12 12 10 11 8 4 5 7 8 11 13 15 16 19 19 18 15 17 16 15 13 3 4 3 3 10 14 15 17 18 21 22 22
8 6 7 7 7 7 5 5 4 4 3 3 5 5 4 4 5 5 8 11 13 14 15 14 17 17 15 4 5 13 3 4 4 4 3 12 14 15 19 19 20 22 20
13 7 8 7 7 8 5 3 2 3 3 3 6 6 5 3 3 3 2 3 3 8 4 5 5 3 4 4 4 4 4 4 3 3 5 12 14 16 20 21 20 23 20
10 8 10 9 8 6 4 4 4 4 3 3 5 6 4 3 4 4 3 4 4 3 4 3 2 2 4 5 6 5 5 4 3 3 5 12 13 14 20 23 24 23 21
10 10 11 9 8 6 6 4 5 5 4 5 5 5 4 4 4 4 4 3 3 2 3 3 3 3 4 4 5 5 5 5 5 3 3 13 13 16 19 23 25 24 22
10 13 10 9 8 7 6 7 5 4 5 4 4 5 6 4 4 4 4 4 4 3 3 3 3 3 3 3 4 5 5 5 5 5 4 4 12 15 21 23 24 23 25
11 12 12 9 8 8 7 5 4 4 4 4 4 5 6 6 6 5 4 3 4 3 4 3 2 2 3 2 4 3 4 6 5 5 5 4 5 16 19 23 26 26 24
10 10 8 7 8 7 6 5 4 4 4 4 4 4 5 5 6 5 4 4 4 4 3 3 3 2 3 3 2 4 4 4 5 5 4 3 4 4 15 19 18 21 22
14 11 8 8 8 7 5 3 3 4 4 4 3 4 5 5 5 5 4 4 4 3 3 3 2 3 2 2 3 4 3 3 3 4 5 3 4 4 5 15 21 21 25
10 9 8 7 7 6 3 1 1 2 3 3 4 4 5 4 5 5 4 4 4 3 3 3 3 2 2 3 2 2 1 1 2 4 6 3 4 5 5 9 11 11 23
9 9 9 8 6 3 1 1 1 3 2 2 3 5 4 4 5 5 4 4 4 4 4 5 3 4 2 2 3 2 3 1 4 3 4 5 7 6 7 6 7 7 11
11 9 8 7 7 3 2 2 2 2 3 3 3 3 4 5 5 5 5 4 5 3 5 5 4 3 2 3 3 3 2 3 2 3 2 4 6 6 6 8 11 11 10
11 9 8 8 7 3 3 2 1 1 1 2 2 2 2 3 4 5 6 4 4 4 4 5 5 6 4 1 3 4 3 3 3 2 3 4 7 5 4 9 12 12 9
8 7 8 7 7 4 4 2 1 1 1 2 2 1 1 2 3 4 5 5 5 4 5 5 4 3 4 4 1 1 3 4 3 3 1 3 6 7 7 7 9 10 9
8 7 7 7 6 4 4 3 2 1 0 1 1 2 2 2 1 3 4 5 4 3 4 6 5 5 3 4 3 2 4 3 2 4 4 3 3 5 6 7 7 8 10
6 7 7 7 4 5 4 4 3 2 2 0 1 1 2 1 1 2 3 4 4 3 5 5 5 5 3 4 4 3 2 3 3 4 3 4 4 4 6 6 5 9 8
Wind_Direction
209 177 182 179 178 177 173 176 178 182 180 178 178 183 180 185 196 202 199 210 247 256 259 269 266 279 279 296 303 303 302 312 316 317 260 228 197 180 180 158 148 140 134
166 168 180 181 183 182 181 182 184 186 186 189 195 201 199 204 209 211 221 221 234 257 273 268 267 257 266 261 274 288 289 297 303 318 272 231 209 185 189 167 153 140 141
156 163 178 184 190 186 185 186 189 188 192 196 205 213 216 222 226 231 235 237 241 250 254 269 269 264 258 259 266 268 278 289 293 310 280 235 215 193 191 175 156 151 150
152 165 178 190 190 187 188 189 191 197 201 206 211 220 223 229 232 246 252 251 250 253 255 253 260 265 259 258 260 267 267 274 280 293 294 218 235 211 197 187 167 159 155
161 171 184 188 186 189 190 190 194 201 207 214 220 229 231 227 233 238 245 252 251 252 255 260 260 257 264 253 253 255 264 265 271 280 299 242 235 229 196 191 174 162 159
173 176 182 184 187 191 191 193 195 202 211 221 228 234 240 238 240 240 244 247 254 256 261 264 269 250 244 249 243 246 259 268 263 280 291 267 234 230 200 199 182 169 165
170 170 175 184 189 192 192 193 197 207 212 223 231 236 242 252 256 256 253 251 250 254 256 257 258 254 245 246 243 241 248 261 254 256 278 267 245 226 209 201 192 172 167
166 164 172 185 190 193 193 194 197 208 218 224 231 237 249 261 267 269 263 260 258 260 262 261 260 253 251 245 234 232 248 244 256 244 260 264 251 226 210 200 191 177 169
158 162 173 184 194 195 196 195 203 209 216 219 216 222 232 251 261 267 268 268 267 266 261 260 262 261 256 246 235 231 244 252 237 232 258 261 256 235 217 196 192 182 175
161 177 178 171 174 176 180 206 203 204 208 212 216 221 229 243 252 258 264 272 274 270 269 265 258 254 249 244 235 228 233 248 247 227 251 262 259 245 216 198 190 183 176
178 175 166 161 161 166 178 212 205 210 210 220 223 228 226 224 246 262 262 263 265 261 259 257 253 252 246 238 226 220 228 233 243 231 231 261 262 242 217 196 189 188 172
197 193 180 172 170 171 179 181 202 211 207 219 214 209 226 224 228 236 247 260 263 268 271 280 254 247 243 183 212 217 199 227 232 231 222 256 260 242 216 195 188 184 162
196 171 171 174 174 166 159 169 200 205 213 224 212 206 216 231 234 249 253 267 267 272 266 275 288 230 176 163 189 189 212 226 233 231 236 254 255 240 213 192 182 169 155
175 176 162 164 161 158 150 165 189 197 203 206 206 204 201 215 226 238 237 242 247 248 267 271 266 189 178 187 188 197 217 224 234 236 241 254 246 231 211 188 176 166 159
171 169 171 160 156 165 166 183 192 194 190 202 209 222 201 207 220 222 232 228 257 259 247 252 235 195 190 190 207 197 224 229 235 231 231 251 231 219 202 182 173 164 152
167 166 168 165 164 161 181 197 201 196 209 205 209 215 210 206 216 216 222 219 241 240 258 236 216 197 196 177 208 224 235 236 236 231 227 243 223 208 199 179 167 161 169
168 155 166 162 167 173 193 202 205 218 221 221 228 225 215 207 218 211 209 223 231 226 236 230 220 190 172 189 228 235 243 243 232 225 214 216 222 200 194 187 178 175 181
136 156 162 163 174 185 190 204 221 232 232 232 233 229 226 219 209 200 201 224 229 224 209 196 173 180 200 200 208 240 246 239 230 211 187 187 193 185 200 183 184 178 164
156 154 167 164 175 188 196 206 231 242 228 237 234 225 229 213 202 193 200 224 220 210 203 177 162 158 172 185 207 243 245 228 201 166 193 185 160 159 154 198 181 161 157
150 156 152 150 166 176 151 213 269 255 252 248 235 229 225 211 205 197 208 222 208 185 200 168 147 143 139 170 216 228 244 283 195 168 176 165 157 145 144 153 163 157 152
145 146 151 146 176 146 131 189 274 258 284 269 248 234 222 219 213 197 215 210 190 187 194 172 138 160 167 151 125 37 36 306 182 146 116 146 149 150 142 144 144 138 154
150 153 145 161 165 162 146 204 205 224 263 263 276 243 230 213 209 196 202 201 191 175 173 161 153 132 143 182 133 98 98 15 44 84 83 154 143 124 140 143 133 133 140
153 158 153 166 160 157 172 115 18 318 332 359 329 280 259 233 213 188 194 195 189 178 168 172 169 154 148 160 245 138 120 164 142 153 154 145 116 124 133 122 126 132 144
163 140 146 153 151 171 166 114 139 181 316 262 268 309 348 317 181 179 192 188 182 174 170 180 167 174 138 147 102 101 76 138 159 134 129 113 117 119 112 114 135 139 137
135 151 152 150 164 167 159 144 140 75 262 287 335 9 341 309 131 189 172 157 167 175 187 161 164 177 163 134 129 116 60 45 56 101 139 135 114 111 114 128 132 127 129
137 139 143 158 165 165 172 152 133 120 111 284 354 0 321 319 65 157 147 157 163 165 159 166 175 183 142 116 121 125 163 165 169 115 97 122 120 115 113 124 114 122 127